Wind_Speed
43 42 42 42 43 43 41 41 42 42 42 41 44 46 47 47 47 49 51 50 49 42 37 34 35 34 35 39 43 49 54 59 62 65 65 61 55 53 52 45 25 27 31
47 47 49 46 45 44 47 43 43 44 44 45 45 49 48 47 48 50 49 49 43 36 33 32 33 34 37 42 48 54 57 60 65 66 65 58 55 51 49 35 26 29 32
51 49 50 49 46 47 46 44 46 45 46 46 49 53 46 47 49 48 48 46 39 32 30 31 32 35 40 46 52 55 58 63 68 71 63 55 53 50 45 27 28 32 33
52 52 52 50 46 47 45 47 47 47 47 51 53 51 47 47 47 49 47 40 32 29 30 32 33 37 43 48 53 58 63 68 73 70 55 45 47 44 32 28 31 33 35
52 56 51 51 49 49 49 48 49 49 51 56 55 46 47 46 48 46 41 34 29 29 31 31 34 39 44 49 54 60 65 71 70 55 40 40 39 33 29 32 32 36 40
54 58 59 52 49 48 50 52 51 55 57 60 52 45 45 47 45 41 37 31 29 30 30 31 36 39 43 47 52 59 66 64 56 42 33 34 31 29 31 33 38 41 42
56 59 55 52 52 52 54 57 58 61 59 54 45 45 46 43 42 39 33 31 31 31 30 32 35 39 42 44 49 58 59 52 39 30 27 25 29 32 35 41 42 44 42
57 57 51 52 54 54 55 58 60 62 53 45 45 46 42 40 39 36 33 32 32 31 30 32 35 39 39 44 49 56 54 45 35 30 29 29 32 37 40 43 44 41 36
43 46 44 45 51 54 56 54 50 46 44 45 45 42 39 39 37 34 32 33 32 29 30 31 35 35 39 43 50 50 46 41 31 29 32 34 39 40 40 41 39 37 34
40 43 46 49 50 48 44 43 43 44 45 46 42 40 40 38 36 34 33 34 30 30 30 32 34 36 41 46 49 48 40 33 34 33 34 38 41 41 40 39 37 36 34
46 43 42 42 45 45 44 44 44 45 47 42 41 39 39 38 36 33 34 32 31 31 32 34 38 40 44 47 48 48 42 35 35 37 38 41 42 42 41 40 40 38 38
49 45 44 46 46 45 45 46 47 46 42 42 41 40 40 38 34 33 33 33 34 33 35 37 41 43 46 49 51 49 44 40 39 42 42 45 45 43 43 43 42 42 41
48 48 48 47 47 44 45 47 46 43 44 42 40 38 36 34 30 31 34 35 35 35 37 40 41 47 49 50 49 48 46 43 43 45 47 46 48 46 45 44 43 44 43
43 43 45 47 47 48 47 45 46 45 43 37 35 34 34 26 31 36 38 37 37 35 37 41 46 47 49 50 46 46 46 47 49 50 51 53 51 50 48 46 46 46 44
46 47 47 48 49 49 48 47 45 43 37 33 34 34 30 35 38 40 40 37 36 39 42 46 47 48 47 48 46 44 46 49 52 54 56 55 55 50 48 46 48 48 48
47 46 48 48 47 46 47 44 41 38 36 36 34 33 38 40 38 36 35 37 40 42 45 48 50 52 52 48 47 47 48 50 53 54 56 58 55 50 48 49 50 51 51
46 46 45 45 45 45 42 41 37 36 37 37 35 33 34 36 36 36 38 40 42 44 46 48 51 52 52 51 51 50 52 53 54 57 59 57 53 52 51 51 51 53 51
45 44 43 44 45 43 41 38 36 37 34 30 28 31 33 33 35 36 39 41 43 46 48 49 49 50 50 52 53 54 56 57 56 59 57 52 53 53 54 53 53 52 55
44 45 45 46 45 43 39 37 39 34 27 28 31 31 31 32 35 38 39 42 46 49 50 50 50 51 51 52 53 55 57 58 60 58 51 52 53 55 55 54 55 56 58
47 49 46 44 39 37 38 39 35 31 31 32 32 33 34 35 38 40 41 46 50 52 52 50 51 52 53 54 54 55 57 58 57 52 50 52 53 55 56 57 58 59 60
38 43 37 35 37 41 40 37 35 35 35 34 35 35 36 37 39 41 45 50 52 51 51 51 53 53 53 54 53 53 57 56 54 51 51 54 55 56 58 59 60 61 63
39 38 37 41 44 45 42 37 37 33 32 35 37 38 38 41 43 44 48 50 50 50 51 54 55 53 53 53 53 54 55 55 53 53 54 56 58 59 60 61 62 64 66
43 43 42 42 45 47 44 42 38 34 37 38 38 39 40 41 44 47 48 49 50 53 53 53 53 54 53 53 52 52 53 53 53 55 57 59 60 61 62 63 65 67 70
49 50 50 50 50 50 48 43 38 37 39 40 39 40 40 43 46 48 49 50 51 53 53 52 52 53 52 51 51 52 53 54 56 59 61 62 63 64 65 66 68 71 73
52 54 54 51 51 49 46 42 39 38 38 40 42 43 44 46 49 49 51 51 51 52 50 50 51 51 49 50 52 53 55 57 60 62 63 64 65 66 68 70 72 72 75
40 49 51 51 51 47 44 41 39 39 40 41 42 43 45 48 51 50 52 52 52 49 48 48 49 49 49 51 53 56 59 61 63 64 64 64 66 68 70 71 72 74 79
Wind_Direction
264 268 263 264 270 272 276 277 278 283 287 290 292 296 300 300 303 305 306 307 309 308 305 305 309 314 315 322 324 325 327 323 319 317 317 321 321 318 318 320 312 318 319
260 264 263 263 269 272 274 275 277 281 286 287 291 295 296 298 301 301 304 306 304 302 301 308 309 314 318 322 325 329 326 319 317 316 318 320 318 314 316 316 311 320 320
258 260 264 265 266 270 268 272 277 280 281 285 289 292 293 295 296 299 303 301 301 299 302 303 310 315 320 326 329 328 323 319 317 320 321 321 318 315 317 310 316 321 320
262 260 259 262 265 265 267 271 273 276 279 281 284 288 290 293 296 300 300 298 294 294 299 304 310 317 325 328 330 328 323 321 323 323 326 325 321 319 315 316 320 321 321
265 256 256 260 262 263 266 268 272 274 276 277 285 285 289 293 298 300 296 291 288 291 295 305 315 324 325 330 330 326 323 325 327 330 327 333 330 319 319 321 323 322 321
259 263 259 257 259 261 265 267 267 269 273 279 279 284 289 296 299 294 289 282 283 287 298 309 318 322 327 327 328 326 325 328 329 333 340 330 320 321 323 323 321 321 321
258 255 256 255 255 258 260 263 268 272 276 277 278 284 292 295 293 289 281 279 281 290 301 311 317 324 324 324 328 327 327 328 330 344 350 340 324 324 322 322 321 322 323
261 258 258 260 262 263 265 267 269 275 273 274 279 287 291 291 287 281 277 276 282 291 303 311 319 321 320 322 326 326 328 325 329 334 330 328 324 323 322 320 322 324 324
255 260 265 267 268 268 270 274 272 266 270 275 283 287 289 286 282 275 273 276 281 292 301 307 315 313 316 323 324 325 323 322 325 328 328 326 324 324 322 322 323 322 320
262 261 262 263 264 263 263 265 265 268 274 278 282 285 284 282 274 269 272 276 283 292 297 306 303 305 314 317 320 321 316 317 321 322 323 324 324 323 321 320 319 318 317
257 258 260 260 261 263 266 268 269 269 272 278 281 282 278 274 266 266 271 276 280 290 294 298 301 306 311 314 317 316 310 313 313 316 319 321 321 319 317 316 315 315 313
255 259 262 264 264 267 266 264 263 270 275 276 278 277 273 268 263 267 272 276 282 287 294 297 301 307 306 311 316 314 310 310 310 313 315 317 316 314 314 313 314 313 309
252 256 259 261 263 261 260 263 268 271 273 275 274 273 266 263 266 267 270 274 279 286 292 296 300 299 306 311 313 310 308 305 308 309 311 314 313 310 311 309 310 310 310
252 254 256 258 258 259 261 264 266 268 271 271 269 264 263 265 260 262 266 272 278 282 288 289 296 303 307 309 308 308 307 305 305 307 310 311 312 309 309 307 308 309 309
254 255 255 256 257 258 259 261 262 264 263 261 259 256 252 253 257 265 275 281 285 288 290 295 298 303 306 308 304 302 304 306 308 308 309 311 311 309 307 306 308 308 308
252 252 251 252 253 255 258 258 258 257 257 255 254 255 252 259 270 272 275 282 285 290 296 300 303 305 306 304 301 298 299 302 305 307 308 311 309 307 306 306 306 307 308
251 250 249 249 248 250 253 251 252 256 256 252 256 264 268 270 274 276 279 283 288 293 299 303 306 310 310 305 299 297 298 301 304 307 310 310 306 305 304 305 306 307 306
245 243 243 242 247 248 247 251 251 250 254 261 267 269 269 273 276 281 284 286 291 296 299 304 308 309 307 302 298 297 299 302 303 307 310 306 305 304 305 306 308 307 307
241 241 240 242 246 249 249 248 247 247 250 257 261 264 267 272 278 282 285 287 291 296 301 305 308 305 302 299 296 297 299 303 307 309 307 306 305 306 307 307 307 307 307
254 241 240 243 244 244 242 246 249 250 254 255 257 259 265 273 279 283 289 292 297 300 302 305 304 303 301 299 298 299 302 305 307 306 307 306 307 306 306 307 308 308 309
255 246 244 241 237 238 243 246 251 252 256 258 262 267 271 277 283 287 290 294 297 300 302 303 302 300 299 298 299 301 304 306 304 305 307 307 308 307 308 309 309 309 309
236 239 237 237 244 243 243 247 252 259 262 263 267 275 279 280 284 288 292 295 299 302 303 302 301 299 299 298 300 303 306 304 305 308 308 307 307 308 308 308 308 309 309
231 234 242 250 247 245 244 250 252 261 263 265 275 277 279 283 288 292 296 301 303 302 300 300 300 299 298 299 303 304 303 304 306 307 306 307 307 307 307 308 309 309 309
227 227 237 245 244 244 246 249 254 263 264 270 276 278 281 286 291 295 298 299 299 300 299 301 299 299 302 304 305 304 305 306 306 307 307 308 308 308 309 309 309 309 309
243 244 244 242 245 250 250 253 256 261 266 271 274 278 283 288 292 295 297 299 300 300 299 297 301 303 305 306 305 306 307 308 307 307 308 308 309 309 309 310 310 310 309
258 252 249 248 248 249 250 254 255 259 264 274 277 279 285 289 291 293 296 298 297 296 300 304 303 304 306 306 307 308 309 308 308 309 310 309 309 309 310 310 310 310 309
Height
5770 5773 5773 5773 5773 5773 5773 5771 5769 5767 5765 5763 5761 5758 5754 5750 5745 5740 5735 5731 5725 5722 5718 5714 5711 5705 5700 5695 5691 5684 5675 5667 5657 5648 5637 5628 5620 5613 5605 5596 5592 5588 5584
5760 5762 5762 5762 5763 5763 5762 5761 5759 5757 5756 5753 5751 5748 5744 5739 5735 5730 5726 5722 5716 5713 5710 5708 5703 5697 5693 5688 5681 5675 5666 5656 5645 5635 5626 5618 5609 5602 5596 5589 5585 5581 5578
5748 5749 5751 5752 5753 5752 5751 5751 5749 5747 5745 5743 5740 5737 5732 5729 5724 5721 5716 5712 5709 5706 5703 5699 5695 5690 5685 5679 5673 5664 5654 5644 5633 5624 5615 5607 5599 5594 5588 5583 5580 5576 5572
5737 5738 5739 5740 5741 5740 5741 5740 5738 5736 5734 5732 5728 5725 5721 5718 5714 5711 5707 5703 5701 5697 5695 5692 5687 5682 5677 5670 5662 5653 5644 5633 5622 5611 5603 5597 5592 5587 5582 5579 5574 5570 5565
5725 5726 5726 5727 5728 5730 5729 5727 5727 5725 5722 5719 5717 5713 5710 5707 5704 5701 5698 5695 5692 5689 5686 5683 5679 5674 5668 5661 5653 5644 5634 5622 5612 5602 5593 5590 5585 5581 5578 5573 5569 5564 5559
5714 5713 5713 5714 5717 5718 5717 5716 5714 5712 5709 5707 5705 5702 5700 5696 5693 5691 5688 5686 5683 5680 5678 5674 5669 5664 5658 5652 5643 5634 5624 5614 5604 5595 5586 5583 5579 5577 5572 5567 5562 5557 5552
5700 5700 5700 5702 5704 5704 5703 5702 5701 5698 5697 5695 5693 5691 5688 5686 5684 5681 5679 5677 5674 5671 5668 5664 5659 5654 5649 5643 5634 5623 5614 5605 5597 5589 5583 5579 5576 5571 5566 5560 5554 5548 5541
5688 5688 5688 5690 5690 5690 5690 5690 5688 5687 5685 5683 5681 5680 5677 5676 5674 5672 5671 5668 5665 5663 5659 5655 5650 5646 5640 5633 5624 5614 5606 5599 5592 5586 5580 5575 5570 5565 5558 5551 5545 5539 5533
5677 5677 5678 5679 5679 5679 5678 5677 5676 5675 5673 5671 5670 5668 5667 5665 5663 5662 5661 5659 5656 5653 5649 5644 5640 5636 5629 5622 5614 5605 5599 5593 5587 5580 5574 5568 5564 5557 5551 5543 5537 5531 5527
5665 5666 5666 5666 5666 5665 5665 5665 5664 5662 5661 5660 5658 5656 5655 5654 5653 5652 5651 5650 5648 5643 5639 5634 5630 5626 5620 5613 5605 5598 5591 5585 5580 5574 5567 5560 5555 5549 5542 5536 5530 5524 5518
5651 5653 5653 5654 5653 5654 5654 5653 5652 5651 5650 5649 5646 5645 5644 5643 5642 5642 5641 5640 5637 5633 5629 5624 5620 5617 5610 5605 5597 5588 5584 5577 5571 5566 5559 5552 5546 5540 5534 5528 5521 5516 5510
5639 5640 5641 5642 5641 5641 5641 5641 5640 5639 5637 5636 5634 5634 5633 5632 5632 5632 5632 5630 5627 5623 5618 5614 5610 5605 5600 5595 5588 5582 5576 5571 5564 5559 5551 5544 5537 5530 5524 5518 5512 5506 5500
5627 5628 5629 5629 5629 5628 5628 5628 5627 5626 5626 5624 5623 5622 5621 5622 5623 5624 5622 5619 5616 5612 5608 5605 5598 5593 5588 5582 5576 5572 5567 5562 5556 5550 5542 5532 5526 5520 5514 5508 5503 5496 5490
5614 5615 5616 5616 5615 5615 5615 5615 5615 5614 5614 5614 5612 5612 5613 5613 5614 5613 5610 5607 5604 5601 5597 5593 5587 5582 5576 5570 5565 5561 5557 5552 5546 5539 5532 5525 5516 5509 5503 5496 5491 5485 5479
5598 5600 5602 5603 5602 5602 5602 5602 5602 5602 5602 5601 5601 5600 5600 5602 5601 5601 5600 5597 5594 5591 5588 5583 5577 5571 5564 5559 5554 5550 5545 5540 5535 5528 5521 5513 5506 5499 5491 5485 5479 5473 5467
5584 5586 5587 5587 5587 5588 5589 5590 5590 5590 5590 5590 5590 5590 5590 5590 5592 5590 5587 5585 5583 5579 5576 5572 5567 5562 5555 5548 5543 5538 5533 5527 5521 5515 5509 5502 5494 5487 5480 5473 5465 5460 5454
5572 5572 5572 5574 5574 5575 5577 5577 5578 5579 5578 5579 5579 5580 5582 5583 5581 5580 5578 5575 5572 5569 5565 5560 5555 5549 5544 5539 5534 5528 5522 5515 5508 5502 5494 5487 5481 5475 5468 5460 5453 5446 5441
5557 5559 5561 5562 5564 5564 5565 5567 5567 5568 5569 5570 5571 5573 5573 5572 5572 5570 5567 5564 5561 5556 5552 5546 5542 5536 5531 5527 5521 5516 5509 5502 5495 5487 5480 5473 5468 5462 5455 5448 5440 5433 5427
5544 5546 5547 5549 5552 5553 5555 5555 5556 5558 5559 5560 5562 5563 5563 5563 5561 5558 5555 5553 5549 5545 5539 5534 5530 5525 5520 5514 5509 5503 5497 5490 5482 5474 5466 5460 5454 5448 5442 5434 5427 5420 5412
5532 5533 5535 5538 5540 5542 5543 5546 5547 5549 5550 5551 5552 5552 5552 5551 5549 5546 5543 5540 5536 5532 5527 5522 5518 5512 5507 5502 5496 5490 5483 5476 5469 5462 5454 5448 5441 5435 5428 5420 5412 5404 5396
5521 5523 5526 5528 5529 5531 5534 5535 5537 5538 5540 5541 5541 5541 5540 5538 5536 5534 5531 5528 5524 5519 5515 5510 5505 5499 5493 5488 5483 5475 5469 5463 5456 5449 5441 5435 5428 5420 5412 5404 5396 5388 5380
5510 5513 5516 5518 5520 5521 5523 5525 5528 5529 5529 5529 5530 5529 5528 5526 5524 5522 5519 5515 5511 5507 5501 5497 5491 5485 5480 5475 5468 5461 5455 5448 5441 5435 5428 5421 5413 5406 5398 5389 5380 5372 5363
5495 5498 5502 5506 5508 5510 5513 5516 5517 5517 5517 5518 5518 5517 5516 5514 5512 5510 5506 5503 5499 5495 5488 5482 5477 5472 5466 5460 5453 5447 5441 5435 5428 5422 5415 5407 5399 5391 5382 5373 5364 5354 5344
5484 5488 5492 5494 5496 5498 5501 5503 5504 5505 5507 5507 5507 5506 5504 5503 5501 5498 5494 5490 5485 5480 5476 5469 5463 5458 5452 5444 5439 5433 5428 5421 5415 5408 5400 5392 5382 5373 5365 5355 5345 5335 5324
5474 5477 5478 5479 5482 5485 5488 5490 5492 5494 5495 5495 5495 5494 5493 5491 5489 5486 5482 5478 5473 5468 5462 5456 5450 5443 5436 5431 5426 5420 5414 5407 5400 5392 5384 5375 5366 5356 5346 5337 5327 5316 5304
5462 5465 5466 5468 5471 5473 5476 5479 5481 5482 5483 5484 5483 5482 5481 5480 5477 5473 5469 5464 5460 5455 5448 5441 5437 5430 5424 5419 5413 5406 5399 5392 5384 5375 5366 5358 5349 5338 5328 5318 5307 5297 5284